Flag for U.S.A. Weather past 2 weeks in Bellingham, Washington, U.S.A.

Now
63 °F

Mostly cloudy.


Feels Like: 63 °F
Forecast: 59 / 67 °F
Wind: 8 mph from South

Location: Bellingham International Airport

Current Time: Sep 18, 2014 at 3:30:11 PM

Latest Report: Sep 18, 2014 at 2:53 PM


Visibility: 10 mi

Pressure: 29.85 "Hg

Humidity: 81%

Dew point: 57 °F

Location of BellinghamLocation

Historic Weather in Bellingham — Graph

°F

Bellingham temperature yesterday

Maximum temperature yesterday: 72 °F (at 2:53 PM)
Minimum temperature yesterday: 58 °F (at 2:53 AM)
Average temperature yesterday: 63 °F

Past Weeks' High & Low Weather Summary

 TemperatureHumidityPressure
High81 °F (Sep 15, 12:53 PM)94% (Sep 4, 2:04 AM)30.34 "Hg (Sep 4, 2:04 AM)
Low41 °F (Sep 12, 6:53 AM)18% (Sep 10, 12:53 PM)29.71 "Hg (Sep 17, 5:53 PM)
Average61 °F69%30.00 "Hg
* Reported Sep 3 1:53 PM — Sep 18 1:53 PM, Bellingham, Weather by CustomWeather, © 2014

Note: Actual official high and low records may vary slightly from our data, if they occured in-between our weather recording intervals... More about our weather records

Advertising

Bellingham weather history for previous 24 hours

 ConditionsComfort  
Time TempWeatherWind HumidityBarometerVisibility
1:53 PM
Sep 18
62 °FLight rain. Mostly cloudy.7 mph86%29.84 "Hg8 mi
12:53 PM62 °FOvercast.8 mph83%29.83 "Hg10 mi
11:53 AM61 °FMore clouds than sun.12 mph90%29.81 "Hg8 mi
10:53 AM60 °FFog.8 mph90%29.80 "Hg5 mi
9:53 AM62 °FMore clouds than sun.8 mph86%29.79 "Hg10 mi
8:53 AM61 °FMostly cloudy.7 mph93%29.77 "Hg7 mi
8:01 AM61 °FLight rain. Fog.8 mph88%29.75 "Hg2 mi
6:53 AM60 °FLight rain. Fog.5 mph93%29.75 "Hg2 mi
5:53 AM60 °FLight rain. Fog.6 mph90%29.74 "Hg2 mi
4:53 AM60 °FLight rain. Overcast.No wind93%29.74 "Hg7 mi
3:53 AM60 °FLight rain. Fog.3 mph90%29.73 "Hg4 mi
2:53 AM60 °FLight rain. Fog.No wind93%29.74 "Hg6 mi
1:53 AM61 °FLight rain. Fog.No wind90%29.74 "Hg5 mi
12:53 AM60 °FLight rain. Fog.3 mph93%29.75 "Hg6 mi
11:53 PM
Sep 17
60 °FLight rain. Mostly cloudy.6 mph90%29.76 "Hg7 mi
10:53 PM60 °FLight rain. Overcast.3 mph90%29.77 "Hg7 mi
9:53 PM60 °FLight rain. Overcast.5 mph90%29.78 "Hg9 mi
8:53 PM60 °FOvercast.No wind93%29.75 "Hg9 mi
7:53 PM61 °FOvercast.6 mph87%29.73 "Hg10 mi
6:53 PM64 °FPartly sunny.No wind75%29.72 "Hg10 mi
5:53 PM67 °FScattered clouds.No wind73%29.71 "Hg10 mi
4:53 PM68 °FLight rain. Overcast.6 mph68%29.73 "Hg10 mi
3:53 PM69 °FOvercast.3 mph63%29.74 "Hg10 mi
Weather by CustomWeather, © 2014

See weather overviewHow to use our weather pages